When you browse on this site, cookies collect data to enhance your experience and personalize the content and advertising you see.
Visit our Privacy Policy to learn more. By continuing to use the site, you agree to this use of cookies and data.
  • In Germany
  • List of Countries
  • For 7 days
  • Water Temperature
  • Weather Map
  • Weather Widgets
  • user-avatar
    Login

    Hourly Weather Veselovka

    Today, 20 October, Sunday

    Time Temperature Precipitation Wind Pressure Humidity
    00:00 -7°C° 0 mm 2 mps 751 mmHg 68%
    01:00 -7°C° 0 mm 2 mps 751 mmHg 68%
    02:00 -7°C° 0 mm 2 mps 751 mmHg 69%
    03:00 -7°C° 0 mm 2 mps 750 mmHg 69%
    04:00 -7°C° 0 mm 2 mps 750 mmHg 70%
    05:00 -7°C° 0 mm 2 mps 750 mmHg 70%
    06:00 -8°C° 0 mm 2 mps 750 mmHg 70%
    07:00 -8°C° 0 mm 2 mps 750 mmHg 70%
    08:00 -6°C° 0 mm 2 mps 749 mmHg 63%
    09:00 -6°C° 0 mm 3 mps 749 mmHg 55%
    10:00 -4°C° 0 mm 3 mps 749 mmHg 47%
    11:00 -2°C° 0 mm 3 mps 748 mmHg 44%
    12:00 -1°C° 0 mm 3 mps 748 mmHg 40%
    13:00 0°C° 0 mm 3 mps 747 mmHg 36%
    14:00 -2°C° 0 mm 4 mps 747 mmHg 38%
    15:00 -2°C° 0 mm 4 mps 746 mmHg 41%
    16:00 -2°C° 0 mm 4 mps 746 mmHg 43%
    17:00 -2°C° 0 mm 4 mps 745 mmHg 53%
    18:00 -3°C° 0 mm 4 mps 745 mmHg 62%
    19:00 -3°C° 0 mm 4 mps 744 mmHg 72%
    20:00 -3°C° 0.1 mm 4 mps 744 mmHg 74%
    21:00 -2°C° 0.1 mm 4 mps 744 mmHg 76%
    22:00 -2°C° 0.1 mm 4 mps 743 mmHg 79%
    23:00 -1°C° 0 mm 3 mps 743 mmHg 81%

    Tomorrow, 21 October, Monday

    Time Temperature Precipitation Wind Pressure Humidity
    00:00 -1°C° 0 mm 3 mps 742 mmHg 83%
    01:00 -1°C° 0 mm 2 mps 742 mmHg 85%
    02:00 -1°C° 0.1 mm 2 mps 742 mmHg 85%
    03:00 0°C° 0.1 mm 3 mps 742 mmHg 86%
    04:00 0°C° 0.1 mm 3 mps 742 mmHg 87%
    05:00 +1°C° 0 mm 2 mps 741 mmHg 89%
    06:00 +1°C° 0 mm 2 mps 741 mmHg 91%
    07:00 +1°C° 0 mm 2 mps 741 mmHg 93%
    08:00 +2°C° 0 mm 2 mps 741 mmHg 91%
    09:00 +3°C° 0 mm 2 mps 741 mmHg 89%
    10:00 +3°C° 0 mm 3 mps 741 mmHg 86%
    11:00 +4°C° 0 mm 2 mps 740 mmHg 86%
    12:00 +4°C° 0 mm 2 mps 740 mmHg 86%
    13:00 +5°C° 0 mm 2 mps 740 mmHg 86%
    14:00 +4°C° 0 mm 2 mps 740 mmHg 88%
    15:00 +4°C° 0 mm 2 mps 739 mmHg 90%
    16:00 +3°C° 0 mm 2 mps 739 mmHg 93%
    17:00 +3°C° 0 mm 2 mps 739 mmHg 93%
    18:00 +3°C° 0 mm 2 mps 739 mmHg 94%
    19:00 +2°C° 0 mm 2 mps 738 mmHg 95%
    20:00 +2°C° 0 mm 2 mps 737 mmHg 95%
    21:00 +2°C° 0 mm 2 mps 736 mmHg 95%
    22:00 +1°C° 0 mm 3 mps 735 mmHg 96%
    23:00 +2°C° 0.4 mm 3 mps 734 mmHg 95%

    Day after tomorrow, 22 October, Tuesday

    Time Temperature Precipitation Wind Pressure Humidity
    00:00 +3°C° 0.4 mm 4 mps 733 mmHg 94%
    01:00 +3°C° 0.4 mm 5 mps 731 mmHg 93%
    02:00 +3°C° 0.7 mm 5 mps 730 mmHg 92%
    03:00 +5°C° 0.7 mm 5 mps 729 mmHg 90%
    04:00 +5°C° 0.7 mm 5 mps 728 mmHg 89%
    05:00 +5°C° 0.2 mm 5 mps 727 mmHg 88%
    06:00 +5°C° 0.2 mm 4 mps 726 mmHg 88%
    07:00 +5°C° 0.2 mm 4 mps 726 mmHg 88%
    08:00 +5°C° 0.1 mm 4 mps 726 mmHg 87%
    09:00 +5°C° 0.1 mm 4 mps 726 mmHg 86%
    10:00 +4°C° 0.1 mm 4 mps 726 mmHg 85%
    11:00 +3°C° 0.1 mm 5 mps 726 mmHg 84%
    12:00 +3°C° 0.1 mm 6 mps 727 mmHg 82%
    13:00 +3°C° 0.1 mm 7 mps 728 mmHg 81%
    14:00 +2°C° 0 mm 7 mps 729 mmHg 80%
    15:00 +2°C° 0 mm 6 mps 730 mmHg 79%
    16:00 +1°C° 0 mm 6 mps 730 mmHg 78%
    17:00 +1°C° 0 mm 6 mps 731 mmHg 78%
    18:00 0°C° 0 mm 5 mps 732 mmHg 77%
    19:00 -1°C° 0 mm 5 mps 733 mmHg 76%
    20:00 -2°C° 0 mm 5 mps 734 mmHg 76%
    21:00 -4°C° 0 mm 5 mps 734 mmHg 76%
    22:00 -3°C° 0 mm 4 mps 735 mmHg 75%
    23:00 -4°C° 0 mm 4 mps 735 mmHg 74%

    23 October, Wednesday

    Time Temperature Precipitation Wind Pressure Humidity
    00:00 -4°C° 0 mm 4 mps 736 mmHg 72%
    01:00 -5°C° 0 mm 4 mps 736 mmHg 70%
    02:00 -5°C° 0 mm 3 mps 737 mmHg 71%
    03:00 -5°C° 0 mm 3 mps 738 mmHg 71%
    04:00 -4°C° 0 mm 2 mps 738 mmHg 72%
    05:00 -5°C° 0 mm 2 mps 738 mmHg 74%
    06:00 -3°C° 0 mm 1 mps 739 mmHg 75%
    07:00 -3°C° 0 mm 1 mps 739 mmHg 77%
    08:00 -2°C° 0 mm 1 mps 739 mmHg 72%
    09:00 -3°C° 0 mm 2 mps 739 mmHg 67%
    10:00 -2°C° 0 mm 2 mps 739 mmHg 63%
    11:00 -1°C° 0 mm 2 mps 739 mmHg 61%
    12:00 -1°C° 0 mm 2 mps 739 mmHg 60%
    13:00 +1°C° 0 mm 2 mps 738 mmHg 59%
    14:00 +1°C° 0 mm 2 mps 738 mmHg 62%
    15:00 -1°C° 0 mm 2 mps 737 mmHg 65%
    16:00 -1°C° 0 mm 3 mps 737 mmHg 68%
    17:00 -2°C° 0 mm 3 mps 736 mmHg 69%
    18:00 -2°C° 0 mm 3 mps 736 mmHg 70%
    19:00 -4°C° 0 mm 3 mps 735 mmHg 72%
    20:00 -2°C° 0 mm 3 mps 734 mmHg 73%
    21:00 -2°C° 0 mm 3 mps 734 mmHg 75%
    22:00 -2°C° 0 mm 3 mps 733 mmHg 77%
    23:00 -2°C° 0 mm 4 mps 732 mmHg 79%

    24 October, Thursday

    Time Temperature Precipitation Wind Pressure Humidity
    00:00 -1°C° 0 mm 4 mps 732 mmHg 82%
    01:00 -1°C° 0 mm 4 mps 731 mmHg 84%
    02:00 0°C° 0 mm 4 mps 731 mmHg 84%
    03:00 +1°C° 0 mm 4 mps 730 mmHg 85%
    04:00 +3°C° 0 mm 4 mps 730 mmHg 85%
    05:00 +3°C° 0 mm 4 mps 730 mmHg 86%
    06:00 +3°C° 0 mm 4 mps 729 mmHg 86%
    07:00 +3°C° 0 mm 4 mps 729 mmHg 87%
    08:00 +4°C° 0 mm 4 mps 729 mmHg 86%
    09:00 +4°C° 0 mm 4 mps 729 mmHg 85%
    10:00 +4°C° 0 mm 4 mps 729 mmHg 84%
    11:00 +4°C° 0 mm 3 mps 729 mmHg 84%
    12:00 +4°C° 0 mm 3 mps 730 mmHg 84%
    13:00 +4°C° 0 mm 3 mps 730 mmHg 84%
    14:00 +4°C° 0 mm 3 mps 730 mmHg 84%
    15:00 +4°C° 0 mm 3 mps 731 mmHg 84%
    16:00 +3°C° 0 mm 3 mps 731 mmHg 85%
    17:00 +4°C° 0 mm 2 mps 732 mmHg 85%
    18:00 +3°C° 0 mm 2 mps 732 mmHg 86%
    19:00 +3°C° 0 mm 2 mps 733 mmHg 86%
    20:00 +3°C° 0 mm 2 mps 733 mmHg 84%
    21:00 +2°C° 0 mm 2 mps 733 mmHg 83%
    22:00 +2°C° 0 mm 2 mps 734 mmHg 81%
    23:00 +2°C° 0 mm 2 mps 734 mmHg 82%

    25 October, Friday

    Time Temperature Precipitation Wind Pressure Humidity
    00:00 +1°C° 0 mm 2 mps 734 mmHg 84%
    01:00 +1°C° 0 mm 2 mps 734 mmHg 85%
    02:00 +1°C° 0 mm 2 mps 734 mmHg 86%
    03:00 +1°C° 0 mm 2 mps 735 mmHg 86%
    04:00 -1°C° 0 mm 2 mps 735 mmHg 87%
    05:00 -1°C° 0 mm 2 mps 735 mmHg 87%
    06:00 -1°C° 0 mm 2 mps 735 mmHg 88%
    07:00 -1°C° 0 mm 2 mps 735 mmHg 88%
    08:00 0°C° 0 mm 3 mps 735 mmHg 84%
    09:00 +1°C° 0 mm 3 mps 735 mmHg 79%
    10:00 +2°C° 0 mm 3 mps 735 mmHg 74%
    11:00 +3°C° 0 mm 3 mps 734 mmHg 74%
    12:00 +3°C° 0 mm 3 mps 734 mmHg 74%
    13:00 +4°C° 0 mm 3 mps 734 mmHg 74%
    14:00 +4°C° 0 mm 3 mps 733 mmHg 77%
    15:00 +3°C° 0 mm 3 mps 733 mmHg 79%
    16:00 +3°C° 0 mm 3 mps 733 mmHg 82%
    17:00 +3°C° 0 mm 3 mps 733 mmHg 83%
    18:00 +3°C° 0 mm 3 mps 733 mmHg 85%
    19:00 +3°C° 0 mm 3 mps 733 mmHg 87%
    20:00 +4°C° 0 mm 2 mps 734 mmHg 87%
    21:00 +4°C° 0 mm 2 mps 734 mmHg 88%
    22:00 +4°C° 0 mm 2 mps 734 mmHg 88%
    23:00 +4°C° 0.1 mm 2 mps 734 mmHg 89%
    Show more